Regional Weather Roundup
Issued by NWS State College, PA

Home | Current Version | Previous Version | Text Only | Print | Product List | Glossary Off
Versions: 1 2 3 4 5 6 7 8 9 10 11 12 13 14 15 16 17 18 19 20 21 22 23 24 25 26 27 28 29 30 31 32 33 34 35 36 37 38 39 40 41 42 43 44 45 46 47 48 49 50

832
ASUS41 KCTP 240203
RWRCTP

REGIONAL WEATHER ROUNDUP
NATIONAL WEATHER SERVICE STATE COLLEGE PA
1000 PM EDT SAT JUL 23 2016

Note: "fair" indicates few or no clouds below 12,000 feet with no
significant weather and/or obstructions to visibility.

* = STATION THAT DOES NOT REPORT PRECIPITATION /E.G. RAIN...SNOW...ETC/
    THUNDER OR FOG.

PAZ002>004-007>009-013>016-020>023-029>032-240300-
WESTERN PENNSYLVANIA

CITY           SKY/WX    TMP DP  RH WIND       PRES   REMARKS
ERIE           CLOUDY    76  63  64 CALM      29.98R
MEADVILLE      CLOUDY    73  60  63 CALM      30.02R
FRANKLIN*      CLOUDY    72  55  56 CALM      30.05R
NEW CASTLE     FAIR      77  63  61 NE3       30.01R
BEAVER COUNTY  NOT AVBL
BUTLER*        CLOUDY    75  63  64 NE3       30.03R
PITTSBURGH INT CLOUDY    78  70  76 CALM      29.99R
PITTSBURGH     CLEAR     75  69  81 S3        29.99R
INDIANA*       CLEAR     75  64  69 CALM      30.04R
LATROBE        CLEAR     73  72  94 CALM      30.00R
WASHINGTON CO* PTCLDY    73  70  88 CALM      30.01R
$$

PAZ004>006-010>012-017>019-024>028-033>037-041-042-045-046-049>053-240300-
CENTRAL PENNSYLVANIA

CITY           SKY/WX    TMP DP  RH WIND       PRES   REMARKS
BRADFORD       CLEAR     67  57  70 CALM      30.04R
DUBOIS         CLEAR     71  58  63 CALM      30.03R
CLEARFIELD     CLEAR     74  56  53 N6        30.02R
JOHNSTOWN      CLEAR     74  66  76 W6        30.05R
ALTOONA        CLEAR     77  68  73 W6        30.01R
STATE COLLEGE  CLEAR     82  54  37 NW5       29.99R
WILLIAMSPORT   CLEAR     78  56  46 CALM      29.92R
SELINSGROVE    CLEAR     77  59  53 NW3       29.93R
FT INDIANTOWN  CLEAR     86  55  34 NW5       29.91R
CAPITAL CITY   CLEAR     80  60  50 CALM      29.90R
HARRISBURG     PTCLDY    81  73  76 CALM      29.89R
YORK           CLEAR     75  72  90 SE3       29.92R
$$

PAZ038>040-043-044-047-048-054-055-060>062-067>071-240300-
EASTERN PENNSYLVANIA

CITY           SKY/WX    TMP DP  RH WIND       PRES   REMARKS
SCRANTON       CLEAR     81  55  40 N6        29.94R
MOUNT POCONO   CLEAR     73  32  22 N7        30.00R
ALLENTOWN      CLEAR     79  59  50 CALM      29.89R
QUAKERTOWN*    PTCLDY    81  68  65 CALM      29.92R
READING        PTCLDY    78  68  71 N7        29.90R
LANCASTER      CLEAR     73  70  90 N3        29.91R
COATESVILLE    PTCLDY    73  68  83 NW5       29.94R
POTTSTOWN      CLEAR     78  67  68 CALM      29.91R
BLUE BELL      PTCLDY    73  68  83 CALM      29.89R
DOYLESTOWN     CLEAR     79  65  62 W3        29.90R
WILLOW GROVE   NOT AVBL
NORTH PHILA    PTCLDY    81  70  69 SW5       29.90R
PHILADELPHIA   PTCLDY    81  70  69 S7        29.90R
$$




USA.gov is the U.S. government's official web portal to all federal, state and local government web resources and services.